Location: Banksville Park
(38.5557°N, 75.1182°W)
Time: 15:18:48
(UTC+00:00)

USA 234 - Pass Details

Date: 19 September 2020
Orbit: 1102 x 1106 km, 123.0° (Epoch: 16 October)

Event Time Altitude Azimuth Distance (km) Brightness Sun altitude
Exits shadow 01:42:01 - 41° (NE) 3,547 5.8 -30.5°
Reaches altitude 10° 01:43:34 10° 38° (NE) 2,965 5.4 -30.8°
Maximum altitude 01:49:51 52° 324° (NW) 1,342 3.9 -31.8°
Drops below altitude 10° 01:56:09 10° 250° (WSW) 2,958 5.9 -32.9°
Sets 01:58:41 0° 246° (WSW) 3,915 6.5 -33.3°
